Location: Unspecified
(0.0000°N, 0.0000°E)
Time: 16:44:11
(UTC+01:00)

H-2A R/B - Visible Passes

Search period start: 28 November 2014 00:00
Search period end: 08 December 2014 00:00
Orbit: 260 x 33580 km, 28.1° (Epoch: 27 November)

Date Brightness Start Highest point End Pass type
(mag) Time Alt. Az. Time Alt. Az. Time Alt. Az.
29 Nov 6.1 05:25:35 22° WNW 14:09:04 86° SW 14:35:00 10° SE visible
30 Nov 6.5 01:05:34 26° ENE 01:05:34 26° ENE 09:40:19 10° E visible
02 Dec 6.0 02:15:25 51° NE 02:15:25 51° NE 11:07:11 10° E visible
04 Dec 5.8 03:25:07 60° NNW 11:18:00 69° NE 12:24:58 10° ESE visible
06 Dec 6.1 04:34:40 39° NW 13:02:58 88° NE 13:39:05 10° ESE visible
07 Dec 7.1 00:14:27 13° ENE 00:14:27 13° ENE 00:18:18 10° ENE visible
07 Dec 9.7 04:55:24 10° ENE 07:21:59 20° ENE 08:31:34 10° E visible
